Regional Weather Roundup
Issued by NWS Goodland, KS

Home | Current Version | Previous Version | Graphics & Text | Print | Product List | Glossary On
Versions: 1 2 3 4 5 6 7 8 9 10 11 12 13 14 15 16 17 18 19 20 21 22 23 24 25 26 27 28 29 30 31 32 33 34 35 36 37 38 39 40 41 42 43 44 45 46 47 48 49 50
000
ASUS43 KGLD 162059
RWRGLD

GOODLAND FORECAST AREA HOURLY WEATHER ROUNDUP
NATIONAL WEATHER SERVICE GOODLAND KS
300 PM MDT TUE SEP 16 2014

...OFFICIAL OBSERVATIONS...

CITY           SKY/WX    TMP DP  RH WIND       PRES   REMARKS
GOODLAND KS    SUNNY     84  55  36 SW10      30.02F
HILL CITY KS   PTSUNNY   74  58  57 S15       30.03F
IMPERIAL NEB   MOSUNNY   85  51  31 W9        29.98F
MCCOOK NEB     SUNNY     78  58  49 S15       29.99F
AKRON CO       SUNNY     87  34  15 NW25G33   30.07F
BURLINGTON CO  SUNNY     88  43  20 N6        30.05F
LIMON CO       SUNNY     85  31  14 W12G20    30.14F
$$

...UNOFFICIAL OBSERVATIONS...

CITY           SKY/WX    TMP DP  RH WIND       PRES   REMARKS
COLBY KS       SUNNY     82  63  51 S13G20    30.02F
GOVE KS          N/A     77  32  19 MISG        N/A
NORTON KS      MOSUNNY   73  52  46 S16G23    30.02F
SHARON SPRINGS   N/A     84  59  42 SW7         N/A
WAKEENEY KS      N/A     74  57  54 MISG        N/A
TRENTON NEB      N/A     83  32  16 S14         N/A
YUMA CO          N/A     88  39  17 NW15G26     N/A
$$


USA.gov is the U.S. government's official web portal to all federal, state and local government web resources and services.